Willmar, MN

1:30 AM CDT on May 27, 2017 (GMT -0500)
Willmar

Weather History for KBDH - June, 2013

Change the Weather History Date:

Thursday, June 20, 2013

  Actual Average (KBBB) Record (KBBB)
Temperature  
Mean Temperature 82 °F -  
Max Temperature 91 °F 78 °F 98 °F (1989)
Min Temperature 73 °F 56 °F 38 °F (1969)
Cooling Degree Days 17    
Growing Degree Days 32 (Base 50)    
Moisture  
Dew Point 60 °F    
Average Humidity 49    
Maximum Humidity 69    
Minimum Humidity 29    
Precipitation  
Precipitation 0.00 in - - ()
Sea Level Pressure  
Sea Level Pressure 29.91 in    
Wind  
Wind Speed 11 mph (SSE)    
Max Wind Speed 24 mph    
Max Gust Speed 31 mph    
Visibility 10 miles    
Events Thunderstorm    
Averages and records for this station are not official NWS values.
T = Trace of Precipitation, MM = Missing Value Source: NWS Daily Summary

Daily Weather History Graph

Daily Weather History Graph

Search for Another Location

Airport or City:

Trip Planner

Search our weather history database for the weather conditions in past years. The results will help you decide how hot, cold, wet, or windy it might be!

Date:

Astronomy

Jun. 20, 2013 Rise Set
Actual Time 5:33 AM CDT 9:11 PM CDT
Civil Twilight 4:55 AM CDT 9:48 PM CDT
Nautical Twilight 4:05 AM CDT 10:38 PM CDT
Astronomical Twilight 2:58 AM CDT 11:45 PM CDT
Moon 6:09 PM CDT (6/20) 3:06 AM CDT (6/20)
Length of Visible Light 16h 53m
Length of Day
15h 38m
Waxing Gibbous, 89% of the Moon is Illuminated
Jun 20
Waxing Gibbous
Jun 23
Full
Jun 29
Last Quarter
Jul 8
New
Jul 15
First Quarter

Hourly Weather History & Observations

Time (CDT) Temp. Heat Index Dew Point Humidity Pressure Visibility Wind Dir Wind Speed Gust Speed Precip Events Conditions
12:15 AM 78.8 °F - 57.2 °F 47% 29.93 in 10.0 mi SSE 11.5 mph - N/A   Clear
12:36 AM 77.0 °F - 57.2 °F 50% 29.94 in 10.0 mi SSE 8.1 mph - N/A   Clear
12:55 AM 75.2 °F - 57.2 °F 53% 29.94 in 10.0 mi SSE 9.2 mph - N/A   Clear
1:15 AM 75.2 °F - 57.2 °F 53% 29.94 in 10.0 mi SSE 10.4 mph - N/A   Clear
1:36 AM 75.2 °F - 57.2 °F 53% 29.94 in 10.0 mi SSE 10.4 mph - N/A   Clear
1:55 AM 75.2 °F - 57.2 °F 53% 29.94 in 10.0 mi SSE 9.2 mph - N/A   Clear
2:15 AM 75.2 °F - 59.0 °F 57% 29.94 in 10.0 mi SSE 10.4 mph - N/A   Clear
2:36 AM 75.2 °F - 59.0 °F 57% 29.94 in 10.0 mi SSE 10.4 mph - N/A   Scattered Clouds
2:55 AM 75.2 °F - 60.8 °F 61% 29.95 in 10.0 mi SSE 8.1 mph - N/A   Scattered Clouds
3:15 AM 75.2 °F - 60.8 °F 61% 29.95 in 10.0 mi SSE 10.4 mph - N/A   Mostly Cloudy
3:36 AM 75.2 °F - 60.8 °F 61% 29.95 in 10.0 mi SSE 10.4 mph - N/A   Scattered Clouds
3:55 AM 75.2 °F - 60.8 °F 61% 29.95 in 10.0 mi SSE 10.4 mph - N/A   Mostly Cloudy
4:15 AM 75.2 °F - 60.8 °F 61% 29.94 in 10.0 mi SSE 12.7 mph - N/A   Mostly Cloudy
4:35 AM 75.2 °F - 60.8 °F 61% 29.93 in 10.0 mi SSE 10.4 mph - N/A   Scattered Clouds
4:55 AM 73.4 °F - 60.8 °F 65% 29.92 in 10.0 mi SSE 10.4 mph 16.1 mph N/A   Clear
5:15 AM 73.4 °F - 60.8 °F 65% 29.92 in 10.0 mi SSE 10.4 mph - N/A   Clear
5:35 AM 73.4 °F - 60.8 °F 65% 29.93 in 10.0 mi SSE 9.2 mph - N/A   Clear
5:55 AM 73.4 °F - 60.8 °F 65% 29.94 in 10.0 mi SSE 10.4 mph - N/A   Clear
6:15 AM 73.4 °F - 60.8 °F 65% 29.95 in 10.0 mi SSE 11.5 mph - N/A   Clear
6:35 AM 73.4 °F - 60.8 °F 65% 29.95 in 10.0 mi SSE 10.4 mph - N/A   Clear
6:55 AM 73.4 °F - 62.6 °F 69% 29.94 in 10.0 mi SSE 10.4 mph 19.6 mph N/A   Clear
7:15 AM 73.4 °F - 62.6 °F 69% 29.95 in 10.0 mi SSE 8.1 mph - N/A   Clear
7:35 AM 73.4 °F - 62.6 °F 69% 29.97 in 10.0 mi SSE 8.1 mph - N/A   Clear
7:55 AM 73.4 °F - 62.6 °F 69% 29.97 in 10.0 mi SSE 6.9 mph - N/A   Clear
8:15 AM 73.4 °F - 62.6 °F 69% 29.96 in 10.0 mi SSE 11.5 mph - N/A   Clear
8:35 AM 73.4 °F - 62.6 °F 69% 29.97 in 10.0 mi SSE 5.8 mph - N/A   Clear
8:55 AM 73.4 °F - 62.6 °F 69% 29.97 in 10.0 mi SSE 8.1 mph - N/A   Clear
9:15 AM 73.4 °F - 62.6 °F 69% 29.98 in 10.0 mi South 4.6 mph - N/A   Clear
9:35 AM 75.2 °F - 62.6 °F 65% 29.99 in 10.0 mi Calm Calm - N/A   Clear
9:55 AM 75.2 °F - 62.6 °F 65% 29.99 in 10.0 mi SSE 3.5 mph - N/A   Clear
10:15 AM 75.2 °F - 62.6 °F 65% 29.97 in 10.0 mi SSE 9.2 mph - N/A   Clear
10:35 AM 77.0 °F - 62.6 °F 61% 29.99 in 10.0 mi SSE 5.8 mph - N/A   Clear
10:55 AM 78.8 °F - 62.6 °F 57% 29.98 in 10.0 mi SSE 6.9 mph - N/A   Clear
11:15 AM 80.6 °F 81.8 °F 62.6 °F 54% 29.98 in 10.0 mi SE 9.2 mph - N/A   Clear
11:35 AM 82.4 °F 83.4 °F 62.6 °F 51% 29.95 in 10.0 mi SE 15.0 mph - N/A   Clear
11:55 AM 84.2 °F 85.0 °F 62.6 °F 48% 29.94 in 10.0 mi SE 13.8 mph - N/A   Clear
12:15 PM 84.2 °F 84.4 °F 60.8 °F 45% 29.94 in 10.0 mi SE 15.0 mph 19.6 mph N/A   Clear
12:35 PM 87.8 °F 87.6 °F 60.8 °F 40% 29.93 in 10.0 mi SSE 16.1 mph 25.3 mph N/A   Clear
12:55 PM 87.8 °F 86.5 °F 57.2 °F 35% 29.90 in 10.0 mi SE 24.2 mph 31.1 mph N/A   Clear
1:15 PM 89.6 °F 88.1 °F 57.2 °F 33% 29.89 in 10.0 mi SSE 17.3 mph 25.3 mph N/A   Clear
1:35 PM 87.8 °F 86.5 °F 57.2 °F 35% 29.90 in 10.0 mi SSE 11.5 mph 20.7 mph N/A   Clear
1:55 PM 89.6 °F 88.1 °F 57.2 °F 33% 29.91 in 10.0 mi South 10.4 mph 23.0 mph N/A   Clear
2:15 PM 89.6 °F 88.1 °F 57.2 °F 33% 29.91 in 10.0 mi SSE 10.4 mph 20.7 mph N/A   Clear
2:35 PM 89.6 °F 88.1 °F 57.2 °F 33% 29.91 in 10.0 mi SSE 17.3 mph 25.3 mph N/A   Clear
2:55 PM 89.6 °F 88.1 °F 57.2 °F 33% 29.91 in 10.0 mi South 10.4 mph 20.7 mph N/A   Clear
3:15 PM 89.6 °F 88.1 °F 57.2 °F 33% 29.90 in 10.0 mi SSE 18.4 mph 27.6 mph N/A   Clear
3:35 PM 91.4 °F 89.9 °F 57.2 °F 31% 29.90 in 10.0 mi SSE 13.8 mph 19.6 mph N/A   Clear
3:55 PM 91.4 °F 89.9 °F 57.2 °F 31% 29.89 in 10.0 mi SSE 12.7 mph 25.3 mph N/A   Clear
4:15 PM 91.4 °F 89.9 °F 57.2 °F 31% 29.89 in 10.0 mi South 11.5 mph 27.6 mph N/A   Clear
4:35 PM 91.4 °F 89.9 °F 57.2 °F 31% 29.88 in 10.0 mi South 5.8 mph 18.4 mph N/A   Unknown
4:55 PM 91.4 °F 89.9 °F 57.2 °F 31% 29.88 in 10.0 mi South 5.8 mph 20.7 mph N/A   Unknown
5:15 PM 91.4 °F 89.4 °F 55.4 °F 29% 29.88 in 10.0 mi SSE 15.0 mph 20.7 mph N/A   Unknown
5:35 PM 91.4 °F 89.9 °F 57.2 °F 31% 29.87 in 10.0 mi SSE 9.2 mph 20.7 mph N/A   Unknown
5:56 PM 91.4 °F 89.9 °F 57.2 °F 31% 29.87 in 10.0 mi SSE 9.2 mph 17.3 mph N/A   Unknown
6:15 PM 91.4 °F 89.9 °F 57.2 °F 31% 29.87 in 10.0 mi SSE 10.4 mph - N/A   Unknown
6:35 PM 91.4 °F 89.9 °F 57.2 °F 31% 29.86 in 10.0 mi SSE 13.8 mph 19.6 mph N/A   Clear
6:55 PM 91.4 °F 89.9 °F 57.2 °F 31% 29.86 in 10.0 mi SSE 15.0 mph 19.6 mph N/A   Clear
7:15 PM 89.6 °F 88.1 °F 57.2 °F 33% 29.86 in 10.0 mi SSE 12.7 mph - N/A   Scattered Clouds
7:35 PM 89.6 °F 88.9 °F 59.0 °F 36% 29.86 in 10.0 mi SSE 11.5 mph - N/A   Scattered Clouds
7:56 PM 89.6 °F 89.5 °F 60.8 °F 38% 29.85 in 10.0 mi SE 12.7 mph - N/A   Scattered Clouds
8:15 PM 87.8 °F 87.1 °F 59.0 °F 38% 29.84 in 10.0 mi SE 12.7 mph - N/A   Scattered Clouds
8:35 PM 87.8 °F 87.6 °F 60.8 °F 40% 29.84 in 10.0 mi SE 11.5 mph - N/A   Scattered Clouds
8:56 PM 87.8 °F 87.6 °F 60.8 °F 40% 29.84 in 10.0 mi SE 12.7 mph - N/A   Scattered Clouds
9:15 PM 86.0 °F 86.1 °F 60.8 °F 43% 29.85 in 10.0 mi SE 12.7 mph 18.4 mph N/A   Scattered Clouds
9:35 PM 86.0 °F 86.1 °F 60.8 °F 43% 29.83 in 10.0 mi SE 13.8 mph - N/A   Mostly Cloudy
9:56 PM 86.0 °F 86.1 °F 60.8 °F 43% 29.84 in 10.0 mi SE 16.1 mph - N/A Thunderstorm Mostly Cloudy
10:15 PM 86.0 °F 86.1 °F 60.8 °F 43% 29.83 in 10.0 mi SE 15.0 mph - N/A   Scattered Clouds
10:35 PM 84.2 °F 84.4 °F 60.8 °F 45% 29.83 in 10.0 mi SSE 15.0 mph 20.7 mph N/A   Clear
10:55 PM 84.2 °F 84.4 °F 60.8 °F 45% 29.83 in 10.0 mi SSE 16.1 mph 25.3 mph N/A   Scattered Clouds
11:15 PM 84.2 °F 84.4 °F 60.8 °F 45% 29.81 in 10.0 mi SSE 16.1 mph 25.3 mph N/A   Scattered Clouds
11:35 PM 84.2 °F 85.0 °F 62.6 °F 48% 29.81 in 10.0 mi SSE 17.3 mph 24.2 mph N/A Thunderstorm Mostly Cloudy
11:55 PM 84.2 °F 85.0 °F 62.6 °F 48% 29.82 in 10.0 mi SSE 15.0 mph 24.2 mph N/A Thunderstorm Mostly Cloudy